SL-16 DEB, 22619

Orbit data source: Space-Track

SL-16 DEB, 22619 is space debris in LEO originally from a launch on Fri, 26 Mar 1993 UTC launched from the Tyuratam Missile And Space Complex (TTMTR). Debris objects in space refer to the collection of defunct objects orbiting the Earth. Examples of debris include non-operational satellites, rocket bodies, and fragments generated from explosions, collisions, or faulty payload assembly.

Loading next visibility...
Identifier
22619, 1993-016AD
Orbit
LEO
Country
Flag of CISCIS
Related business
Manufacturer
Unknown
Mission
Spacecraft
Bus & Motor
Unknown
Mass
Unknown
Launch date (UTC)
1993-03-26 (33 years ago)
Launch vehicle
Unknown
Launch site
Tyuratam Missile And Space Complex (TTMTR)
Object type
Payload
Rocket body
Debris
Shape & HBR
Unknown shape, 0.3 m
Radar Cross Section
Medium (>0.1 m² and <1 m²)

Expand to show TLE details & history
Last TLE update: 3 hours ago

TLE from 3 hours ago
0 SL-16 DEB
1 22619U 93016AD  26038.32625220  .00000039  00000-0  77997-4 0  9995
2 22619  71.0011 135.7943 0187110 327.9271  95.3120 13.73873543647262
Epoch: 2026-02-07T07:49Z
TLE epoch observation values (Epoch: 2026-02-07T07:49:48.190Z)
Latitude
59.36698°
Longitude
-83.76865°
Altitude
1,010.529 km
Speed
7.345 km/s
True Right ascension
11h 24m 32s
True Declination
59° 13' 16"
Sunlit
Object was in full shadow at epoch
Visualization orbit readout
Latitude
Unknown
Longitude
Unknown
Altitude
Unknown
Speed
Unknown
Apparent Right ascension
Unknown
Apparent Declination
Unknown
Sunlit
N/A
Visualization observer readout
Local Sidereal Time
13:05:37
Azimuth
Unknown
Elevation
Unknown
Doppler factor
Unknown
Orbital elements
Apogee altitude
1,121.408 km
Perigee altitude
845.915 km
Semi-major axis
7,361.798 km
Eccentricity
0.01871
Inclination
71.0011°
RAAN
135.7943°
Arg. of periapsis
327.9271°
True anomaly
97.44181°
Mean anomaly
95.312°
Eccentric anomaly
96.37743°
Mean motion
3.43611 °/min
Orbital period
104.77 mins
BSTAR
0.000077997
Loading maneuver chart data...
Computing Atmospheric mass density...
Loading historical data...
Loading historical data...
Loading historical data...
Loading historical data...
Loading historical data...
Loading historical data...
Loading historical data...

Documentation

Showing up to 5 results
|